ONEWEB-0140, 47286

Orbit data source: Space-Track

ONEWEB-0140, 47286 is a payload satellite owned by One Web (UK) in LEO that was launched on Fri, 18 Dec 2020 UTC via a SOYUZ-2-1B launch vehicle from the Vostochny Cosmodrome (VOSTO). Payload-class satellites include a variety of spacecraft equipped with specific instruments for various scientific and technological missions. These include communications satellites like Starlink; space stations such as the ISS; scientific satellites like the Hubble; Earth observation satellites from companies like Planet Labs, Umbra, and HawkEye 360; GPS; miniature CubeSats for education and research; and military/defense satellites.

Loading next visibility...
Identifier
47286, 2020-100AE
Orbit
LEO
Country
Flag of UKUK
Related business
Manufacturer
One Web
Mission
Operational Commercial Communications
Bus & Motor
ARROW, Unknown motor
Mass
148 kg wet, ~140 kg dry
Launch date (UTC)
2020-12-18 (5 years ago)
Launch vehicle
SOYUZ-2-1B
Launch site
Vostochny Cosmodrome (VOSTO)
Object type
Payload
Rocket body
Debris
Shape & HBR
Trap Box + 2 Pan, 6.7 m
Radar Cross Section
3.464 m², Large (>1 m²)

Expand to show TLE details & history
Last TLE update: 9 hours ago

TLE from 9 hours ago
0 ONEWEB-0140
1 47286U 20100AE  26095.16312344 -.00000530  00000-0 -15087-2 0  9999
2 47286  87.9019   5.1413 0001898  82.9593 277.1751 13.12443229255114
Epoch: 2026-04-05T03:54Z
TLE epoch observation values (Epoch: 2026-04-05T03:54:53.865Z)
Latitude
-0.00004°
Longitude
112.94437°
Altitude
1,216.433 km
Speed
7.246 km/s
True Right ascension
00h 20m 33s
True Declination
0° 00' 00"
Sunlit
Object was in daylight at epoch
Visualization orbit readout
Latitude
Unknown
Longitude
Unknown
Altitude
Unknown
Speed
Unknown
Apparent Right ascension
Unknown
Apparent Declination
Unknown
Sunlit
N/A
Visualization observer readout
Local Sidereal Time
19:01:11
Azimuth
Unknown
Elevation
Unknown
Doppler factor
Unknown
Orbital elements
Apogee altitude
1,212.279 km
Perigee altitude
1,209.399 km
Semi-major axis
7,588.976 km
Eccentricity
0.00019
Inclination
87.9019°
RAAN
5.1413°
Arg. of periapsis
82.9593°
True anomaly
277.15352°
Mean anomaly
277.1751°
Eccentric anomaly
277.16431°
Mean motion
3.28298 °/min
Orbital period
109.66 mins
BSTAR
-0.0015087
Loading maneuver chart data...
Computing Atmospheric mass density...
Loading historical data...
Loading historical data...
Loading historical data...
Loading historical data...
Loading historical data...
Loading historical data...
Loading historical data...

Documentation

Showing up to 5 results
|